Wind_Speed
29 30 30 31 30 30 30 30 31 32 33 34 36 37 37 38 39 41 42 44 45 46 46 48 48 48 49 49 49 48 49 50 50 50 50 51 50 51 51 50 50 51 51
30 30 31 31 31 31 31 31 31 32 33 34 36 37 38 38 39 40 42 43 45 45 46 48 48 48 48 49 49 48 48 49 50 50 50 51 51 51 51 52 52 52 52
30 30 30 30 30 31 31 32 32 33 33 35 36 37 37 38 38 39 40 42 44 44 45 46 47 47 47 48 48 48 48 49 50 50 49 50 51 51 52 52 52 53 53
30 30 30 30 30 31 31 33 34 34 34 34 35 35 36 37 38 38 39 41 42 43 44 45 46 46 46 47 47 48 49 50 51 50 49 50 51 51 52 53 53 54 53
30 30 30 30 30 30 31 32 34 34 33 33 34 34 35 36 36 37 39 39 40 41 42 44 45 45 45 46 47 48 49 50 51 51 50 50 51 52 52 53 53 54 53
31 30 30 30 30 30 31 31 31 31 33 33 33 34 34 34 34 35 37 38 38 39 39 41 42 44 44 46 46 47 48 49 49 50 50 50 50 52 52 52 53 54 54
31 31 30 30 29 29 29 30 30 30 31 32 32 32 32 32 33 34 34 35 37 38 38 39 40 42 43 44 46 46 47 47 47 48 49 49 50 51 52 52 53 54 55
31 30 30 29 29 29 28 29 30 30 30 31 30 30 31 31 32 34 34 35 36 38 38 39 40 41 42 44 45 45 46 47 47 48 48 48 49 50 51 52 52 54 55
29 29 29 29 29 29 29 28 28 29 30 29 29 30 30 30 31 32 33 35 35 36 37 38 40 41 42 43 44 45 45 46 46 47 49 49 50 51 52 52 53 54 55
29 28 28 28 28 28 29 29 28 28 28 29 29 29 29 30 31 32 33 34 34 36 38 39 40 41 42 43 43 44 45 45 46 47 49 50 51 51 52 52 53 54 54
28 28 28 27 27 27 27 28 28 28 29 29 29 29 30 31 32 33 34 34 34 35 37 39 40 41 42 43 43 43 44 45 46 47 49 49 50 50 50 50 51 52 53
28 28 28 27 26 27 27 27 27 27 28 29 29 29 30 31 32 33 34 35 34 35 36 37 37 38 40 41 42 43 44 45 46 46 46 47 47 48 49 49 49 50 51
29 29 29 28 28 28 28 28 28 28 28 28 28 28 29 30 31 33 34 34 35 35 36 37 38 38 39 40 41 42 43 43 43 44 44 44 45 46 46 47 48 49 50
29 29 29 28 28 29 28 28 29 29 29 30 30 31 31 32 32 33 33 34 34 35 35 35 36 37 38 39 41 41 41 41 41 42 42 42 43 44 44 46 47 48 48
29 28 28 29 29 30 30 29 29 30 30 30 31 32 32 33 33 34 34 34 34 35 35 35 36 37 38 39 39 39 39 39 40 41 41 42 42 43 45 46 47 47 46
30 29 29 29 29 30 30 30 30 31 31 32 32 33 34 33 34 34 34 34 35 35 36 36 37 37 37 37 37 37 38 39 39 40 41 42 42 44 45 45 45 45 45
31 31 30 30 30 30 31 31 32 32 32 33 34 34 34 34 34 34 35 35 35 35 35 36 36 36 36 37 37 38 38 39 40 40 41 42 43 44 44 44 43 43 43
30 30 29 30 30 31 31 32 32 32 33 33 34 34 35 35 35 35 35 35 36 36 36 36 36 36 36 37 37 37 38 39 40 41 42 42 42 43 43 42 41 41 41
30 29 30 30 30 31 32 32 33 33 33 33 34 34 34 35 35 35 35 36 36 36 36 36 36 36 36 36 37 37 38 39 40 40 41 41 41 41 40 40 40 40 40
29 30 30 30 30 31 31 32 32 33 33 34 34 35 35 35 35 35 36 36 36 36 36 36 36 36 37 37 37 38 38 38 38 38 38 38 38 38 38 38 39 39 39
30 31 31 31 31 31 31 31 32 33 34 34 35 35 35 35 35 36 36 36 35 35 36 36 37 37 37 38 37 37 37 37 37 37 37 36 36 36 36 37 37 37 37
31 32 32 32 31 31 32 32 32 33 33 34 34 35 35 35 35 35 35 35 35 35 36 36 36 36 36 36 36 36 36 36 36 36 35 35 35 35 36 36 36 36 36
32 32 32 32 31 32 32 32 33 33 34 34 34 35 35 35 35 35 35 35 35 36 36 36 36 36 35 35 36 36 36 36 35 35 34 34 34 35 35 35 35 35 34
32 32 32 32 32 32 32 32 32 32 32 33 33 33 34 34 34 34 34 34 35 35 35 35 35 35 35 35 35 35 35 34 34 34 34 35 35 35 34 34 34 34 33
31 31 31 31 31 31 31 31 31 32 32 32 32 33 33 33 33 33 33 33 34 34 34 34 34 34 34 34 34 34 34 34 33 34 34 34 34 34 34 33 33 33 31
30 30 31 31 31 31 31 32 32 32 32 32 32 32 32 32 32 32 33 33 34 34 34 34 34 34 34 34 34 34 34 33 33 33 34 34 34 33 33 32 31 31 30
Wind_Direction
267 268 268 267 265 264 264 261 259 257 256 255 254 253 252 251 250 250 249 248 248 248 249 249 248 249 250 251 252 253 254 255 256 258 259 260 261 263 265 266 267 267 269
269 269 269 267 267 265 264 263 261 259 258 257 255 254 254 252 251 251 250 250 249 250 251 250 249 250 250 252 252 252 253 255 257 259 260 261 262 263 265 266 267 268 269
270 270 269 268 268 265 263 263 262 260 259 259 258 256 255 253 251 251 252 251 250 251 252 252 251 251 251 251 251 252 254 256 257 259 260 261 262 264 265 266 267 269 269
270 269 269 269 269 267 264 263 262 261 260 259 258 256 255 254 253 252 252 253 252 253 253 252 252 251 251 251 252 253 255 256 257 259 260 261 262 264 265 266 267 269 270
269 269 269 269 269 266 265 264 263 261 259 258 256 255 255 255 255 254 253 254 254 254 254 252 252 252 252 252 253 255 256 257 258 259 261 263 263 264 266 267 268 270 270
270 270 270 271 269 268 266 266 263 261 259 259 258 257 255 256 257 256 255 254 254 254 254 252 251 252 253 253 254 256 257 259 260 260 261 263 265 266 267 269 271 271 271
269 270 271 271 270 268 266 264 262 260 259 259 259 258 256 256 256 256 256 255 255 255 254 253 253 253 253 254 254 256 257 259 261 261 262 264 265 267 269 271 272 273 273
269 268 269 270 270 268 265 262 261 259 259 260 260 259 257 256 256 255 255 256 257 257 256 255 255 255 256 256 256 257 259 261 262 263 264 266 268 269 271 272 273 275 274
270 269 269 268 269 266 263 261 261 260 260 260 260 259 258 256 255 256 256 256 257 257 256 257 257 257 257 258 259 260 261 263 264 265 266 267 268 270 271 273 274 276 275
272 272 270 270 269 265 262 261 262 262 261 261 260 260 258 256 255 256 258 258 259 258 258 258 260 260 260 261 261 262 263 265 266 267 268 268 270 271 272 274 275 275 276
273 273 272 270 268 264 263 263 263 263 263 262 261 260 259 259 258 259 260 261 262 261 261 260 261 262 263 262 263 263 265 267 268 269 270 270 271 272 272 274 275 277 278
271 272 271 270 266 263 263 264 264 263 263 264 262 262 262 261 261 261 262 262 263 264 264 264 264 265 264 263 264 265 266 268 270 270 270 270 271 272 273 274 276 278 279
270 269 269 268 267 264 263 263 263 264 265 265 263 264 265 264 264 265 265 264 265 266 266 266 266 265 265 265 266 268 269 270 271 270 271 272 273 274 274 275 277 279 280
267 267 266 266 265 263 262 263 264 265 265 265 265 266 266 266 266 267 267 267 267 268 269 268 267 267 268 269 270 269 270 271 271 271 272 273 274 275 276 278 279 281 281
265 264 264 264 263 263 263 263 264 265 265 265 265 265 266 267 267 268 268 268 268 270 270 269 269 270 270 272 271 270 270 271 271 272 273 274 275 276 278 279 280 280 281
264 265 264 263 263 263 263 264 265 267 267 267 266 266 267 268 268 268 269 270 271 271 270 269 270 270 271 271 270 269 271 272 273 274 275 276 277 278 279 281 282 281 282
263 264 265 264 264 264 264 265 266 267 267 268 268 268 268 268 269 269 271 272 271 271 270 270 270 270 270 270 271 271 272 274 275 276 277 277 278 279 280 281 281 281 281
262 263 265 266 266 265 265 266 267 267 268 268 268 268 269 270 271 271 271 271 272 271 271 271 270 270 270 271 273 274 274 275 276 277 278 278 279 279 280 280 280 280 280
263 264 266 267 267 267 266 266 267 267 268 268 269 270 271 272 272 272 272 272 272 271 271 271 271 271 272 273 274 275 276 277 278 279 279 279 280 280 280 280 279 280 280
262 264 265 267 268 268 268 267 267 267 269 270 270 271 272 272 272 272 273 273 272 271 270 271 271 272 273 274 275 276 277 278 279 279 279 279 279 279 280 280 280 280 282
263 264 265 266 267 268 269 268 269 269 270 272 272 272 272 272 272 273 273 273 272 271 270 271 272 273 274 275 276 277 278 279 280 280 280 280 280 280 281 281 281 282 283
264 266 266 267 267 268 269 270 271 272 272 273 273 273 273 273 273 273 272 272 271 271 271 272 273 274 275 276 276 277 278 279 280 279 279 279 279 280 281 281 281 282 283
265 266 266 267 268 269 271 272 273 273 274 274 274 274 274 274 274 273 272 272 272 272 272 272 273 275 275 276 277 277 278 278 277 277 277 278 279 280 281 280 280 281 283
264 265 266 267 268 269 271 273 273 274 275 275 276 275 274 274 274 273 273 272 272 273 273 274 274 275 276 276 277 278 278 277 276 276 276 278 279 280 280 280 280 280 281
264 265 266 267 268 269 271 273 274 275 276 276 276 276 275 275 274 274 273 273 273 273 273 274 275 275 276 277 277 278 278 277 276 276 277 278 278 278 279 279 279 278 278
264 265 267 268 269 270 271 272 274 276 277 277 277 276 276 275 274 274 274 274 274 274 275 275 275 276 276 277 277 277 277 277 277 277 278 278 278 277 278 278 277 276 276
Height
5631 5631 5630 5630 5629 5629 5629 5629 5630 5630 5632 5633 5635 5637 5638 5640 5642 5644 5647 5649 5652 5654 5656 5659 5663 5666 5669 5672 5674 5677 5679 5682 5684 5687 5688 5690 5691 5692 5693 5694 5694 5694 5694
5623 5623 5622 5621 5621 5620 5620 5620 5621 5622 5623 5624 5625 5627 5628 5630 5632 5634 5637 5639 5641 5644 5646 5648 5651 5654 5657 5660 5662 5665 5667 5669 5672 5674 5675 5677 5678 5679 5680 5681 5681 5681 5681
5615 5614 5614 5613 5612 5612 5612 5612 5612 5613 5613 5614 5615 5616 5618 5620 5622 5624 5626 5628 5631 5633 5635 5637 5640 5642 5645 5648 5650 5653 5655 5657 5659 5661 5663 5664 5665 5665 5666 5667 5667 5667 5667
5606 5606 5605 5605 5604 5603 5603 5603 5603 5603 5604 5604 5605 5606 5608 5609 5611 5613 5615 5618 5620 5622 5624 5626 5628 5631 5634 5636 5638 5640 5642 5644 5646 5648 5649 5650 5651 5651 5652 5652 5652 5652 5652
5598 5597 5597 5596 5596 5595 5595 5594 5594 5594 5594 5595 5596 5597 5598 5599 5601 5603 5605 5607 5609 5611 5613 5615 5617 5619 5622 5624 5626 5628 5630 5632 5633 5635 5636 5637 5637 5638 5638 5638 5638 5638 5638
5589 5588 5588 5587 5587 5586 5586 5585 5585 5585 5585 5586 5587 5588 5589 5590 5592 5593 5595 5597 5599 5600 5602 5604 5606 5608 5610 5612 5614 5616 5618 5619 5620 5622 5623 5624 5624 5624 5624 5624 5624 5624 5624
5580 5580 5579 5579 5578 5577 5577 5577 5577 5577 5577 5577 5578 5579 5580 5581 5582 5584 5585 5587 5589 5591 5592 5594 5595 5597 5599 5601 5602 5604 5605 5606 5607 5608 5610 5610 5611 5612 5611 5611 5610 5609 5608
5571 5571 5570 5570 5569 5569 5569 5568 5569 5569 5569 5569 5570 5571 5572 5572 5573 5575 5576 5578 5579 5581 5582 5583 5585 5586 5588 5589 5591 5592 5593 5594 5595 5596 5597 5598 5597 5597 5597 5596 5595 5594 5593
5562 5562 5561 5561 5560 5560 5560 5560 5560 5561 5561 5561 5561 5562 5563 5563 5564 5565 5567 5568 5569 5571 5572 5573 5574 5576 5577 5578 5579 5581 5582 5582 5582 5583 5584 5584 5584 5583 5582 5581 5580 5579 5578
5554 5553 5552 5552 5551 5551 5552 5552 5552 5552 5552 5552 5553 5553 5554 5555 5556 5557 5558 5559 5560 5561 5562 5562 5564 5565 5566 5566 5567 5568 5569 5570 5570 5570 5570 5570 5569 5568 5567 5566 5565 5564 5562
5545 5544 5544 5543 5543 5543 5543 5543 5544 5544 5544 5544 5545 5545 5546 5547 5547 5548 5548 5549 5550 5551 5551 5552 5553 5553 5554 5554 5555 5556 5556 5557 5557 5557 5557 5556 5555 5554 5552 5551 5550 5549 5547
5536 5536 5536 5535 5535 5535 5535 5536 5536 5536 5536 5536 5537 5537 5537 5538 5538 5538 5539 5540 5540 5541 5541 5542 5542 5542 5543 5543 5543 5543 5544 5544 5544 5543 5543 5542 5541 5540 5539 5537 5536 5534 5533
5527 5527 5527 5527 5527 5527 5527 5528 5528 5528 5528 5528 5528 5529 5529 5529 5529 5529 5529 5530 5530 5530 5531 5531 5531 5531 5531 5531 5531 5531 5531 5531 5530 5530 5530 5529 5528 5527 5525 5524 5522 5520 5518
5518 5518 5519 5519 5519 5519 5519 5520 5520 5520 5520 5520 5520 5520 5520 5520 5520 5520 5520 5520 5520 5520 5520 5520 5520 5520 5520 5519 5519 5519 5518 5518 5518 5517 5517 5516 5515 5514 5513 5511 5509 5507 5505
5509 5509 5510 5510 5510 5510 5511 5511 5511 5511 5511 5511 5511 5511 5511 5511 5511 5510 5510 5510 5510 5510 5510 5510 5509 5509 5508 5508 5507 5507 5506 5506 5505 5505 5504 5504 5503 5502 5500 5498 5496 5493 5491
5500 5500 5501 5501 5501 5502 5502 5502 5502 5502 5502 5501 5501 5501 5501 5501 5501 5500 5500 5500 5500 5499 5499 5499 5498 5498 5497 5497 5496 5496 5495 5494 5494 5493 5492 5491 5490 5489 5487 5485 5482 5480 5478
5491 5491 5491 5492 5492 5492 5492 5493 5493 5492 5492 5491 5491 5491 5490 5490 5490 5490 5490 5489 5489 5488 5488 5488 5487 5487 5486 5486 5485 5485 5484 5483 5482 5481 5480 5479 5477 5476 5474 5472 5470 5468 5466
5482 5482 5482 5482 5483 5483 5483 5483 5482 5482 5482 5481 5481 5480 5480 5480 5480 5479 5479 5479 5478 5477 5477 5477 5476 5476 5476 5475 5474 5474 5473 5472 5471 5469 5468 5466 5464 5463 5461 5459 5458 5456 5454
5473 5473 5473 5473 5473 5473 5473 5473 5472 5472 5472 5471 5471 5470 5470 5470 5469 5468 5468 5468 5467 5467 5466 5466 5466 5465 5465 5464 5463 5462 5461 5460 5459 5457 5455 5453 5452 5450 5448 5447 5446 5444 5442
5464 5464 5464 5464 5464 5464 5463 5463 5463 5462 5462 5461 5461 5460 5459 5459 5458 5458 5457 5456 5456 5455 5455 5455 5455 5454 5454 5453 5452 5451 5450 5448 5446 5445 5443 5441 5440 5438 5437 5435 5434 5433 5431
5455 5455 5455 5455 5454 5454 5454 5453 5453 5452 5452 5451 5450 5450 5449 5448 5448 5447 5446 5445 5445 5445 5444 5444 5444 5443 5442 5441 5440 5439 5438 5436 5435 5433 5431 5430 5428 5427 5426 5424 5423 5421 5420
5445 5445 5445 5445 5445 5444 5444 5444 5443 5442 5442 5441 5440 5439 5438 5437 5437 5436 5435 5434 5434 5433 5433 5433 5432 5431 5430 5429 5428 5427 5426 5425 5423 5422 5420 5419 5418 5417 5415 5414 5412 5411 5409
5435 5435 5435 5435 5435 5434 5434 5433 5433 5432 5431 5430 5429 5428 5428 5427 5426 5425 5424 5423 5423 5422 5422 5421 5420 5420 5418 5417 5416 5415 5415 5413 5412 5411 5410 5409 5407 5406 5405 5403 5402 5400 5399
5424 5425 5425 5425 5425 5424 5424 5423 5422 5422 5421 5420 5418 5418 5417 5416 5415 5414 5413 5412 5412 5411 5410 5410 5409 5408 5407 5406 5405 5404 5403 5402 5401 5400 5399 5398 5397 5396 5394 5393 5392 5390 5389
5414 5415 5415 5414 5414 5414 5414 5413 5412 5411 5410 5409 5408 5407 5406 5405 5404 5403 5402 5401 5401 5400 5399 5398 5398 5397 5396 5395 5394 5393 5392 5391 5390 5389 5388 5387 5386 5385 5384 5383 5381 5380 5379
5404 5404 5404 5404 5404 5404 5403 5402 5401 5401 5400 5398 5397 5396 5395 5394 5393 5392 5391 5390 5390 5389 5388 5387 5387 5386 5385 5384 5383 5382 5381 5380 5380 5379 5378 5377 5376 5375 5373 5373 5372 5371 5370